Location: Bacharowice
(49.9333°N, 19.5833°E)
Time: 02:07:20
(UTC+00:00)

Cosmos 990 Rocket - Pass Details

Date: 11 May 2021
Orbit: 747 x 769 km, 74.0° (Epoch: 22 June)

Event Time Altitude Azimuth Distance (km) Brightness Sun altitude
Exits shadow 21:20:06 27° 209° (SSW) 1,451 5.1 -19.8°
Maximum altitude 21:23:03 81° 293° (WNW) 781 4.0 -20.0°
Drops below altitude 10° 21:28:20 10° 22° (NNE) 2,320 7.2 -20.2°
Sets 21:30:44 0° 24° (NNE) 3,252 8.0 -20.3°
